Location: Oberkirch
(48.5323°N, 8.0787°E)
Time: 16:06:19
(UTC+00:00)

ARIANE 5 R/B - Pass Details

Date: 08 November 2025
Orbit: 747 x 792 km, 98.8° (Epoch: 09 December)

Event Time Altitude Azimuth Distance (km) Brightness Sun altitude
Rises 05:43:18 0° 18° (NNE) 3,219 5.8 -7.3°
Reaches altitude 10° 05:45:39 10° 23° (NNE) 2,295 5.1 -6.9°
Maximum altitude 05:50:36 53° 101° (E) 931 3.5 -6.1°
Drops below altitude 10° 05:55:34 10° 178° (S) 2,305 5.3 -5.4°
Sets 05:57:56 0° 183° (S) 3,235 6.0 -5.0°
